Weather History for Lincoln, NE

Change the Weather History Date:

Sunday, January 14, 2007

  Actual Average Record
Temperature  
Mean Temperature 15 °F 24 °F  
Max Temperature 17 °F 35 °F 60 °F (1990)
Min Temperature 12 °F 14 °F -18 °F (1888)
Degree Days  
Heating Degree Days 50 41  
Month to date heating degree days 502 571  
Since 1 July heating degree days 2783 3016  
Cooling Degree Days 0 0  
Month to date cooling degree days 0 0  
Year to date cooling degree days 0 0  
Moisture  
Dew Point 11 °F    
Average Humidity 82    
Maximum Humidity 88    
Minimum Humidity 76    
Precipitation  
Precipitation 0.15 in 0.02 in 0.61 in (1960)
Month to date precipitation 0.25 0.28  
Year to date precipitation 0.25 0.28  
Snow  
Snow 1.90 in 0.10 in - ()
Month to date snowfall 3.3 2.2  
Since 1 July snowfall 10.8 10.9  
Snow Depth 1.00 in    
Sea Level Pressure  
Sea Level Pressure 30.28 in    
Wind  
Wind Speed 9 mph (North)    
Max Wind Speed 22 mph    
Max Gust Speed 25 mph    
Visibility 3 miles    
Events Fog , Snow    
T = Trace of Precipitation, MM = Missing Value Source: NWS Daily Summary

Daily Weather History Graph

Daily Weather History Graph

Search for Another Location

Airport:

Trip Planner

Search our weather history database for the weather conditions in past years. The results will help you decide how hot, cold, wet, or windy it might be!

Date:

Astronomy

Jan. 14, 2007 Rise Set
Actual Time 7:49 AM CST 5:22 PM CST
Civil Twilight 7:19 AM CST 5:52 PM CST
Nautical Twilight 6:45 AM CST 6:26 PM CST
Astronomical Twilight 6:12 AM CST 6:59 PM CST
Moon 3:51 AM CST (1/14) 1:04 PM CST (1/14)
Length of Visible Light 10h 33m
Length of Day
9h 32m
Waning Crescent, 21% of the Moon is Illuminated
Jan 14
Waning Crescent
Jan 18
New
Jan 25
First Quarter
Feb 1
Full
Feb 10
Last Quarter

Hourly Weather History & Observations

Time (CST) Temp. Windchill Dew Point Humidity Pressure Visibility Wind Dir Wind Speed Gust Speed Precip Events Conditions
12:10 AM 12.2 °F - 8.6 °F 85% 30.32 in 7.0 mi Calm Calm - N/A   Overcast
12:37 AM 12.2 °F - 8.6 °F 85% 30.31 in 7.0 mi Calm Calm - N/A   Overcast
12:54 AM 12.0 °F - 7.0 °F 80% 30.38 in 8.0 mi Calm Calm - N/A   Overcast
1:06 AM 12.2 °F - 8.6 °F 85% 30.29 in 6.0 mi Calm Calm - N/A   Overcast
1:19 AM 12.2 °F - 6.8 °F 79% 30.29 in 9.0 mi Calm Calm - N/A   Overcast
1:43 AM 12.2 °F - 8.6 °F 85% 30.30 in 8.0 mi Calm Calm - N/A   Overcast
1:54 AM 12.9 °F - 8.1 °F 81% 30.37 in 8.0 mi Calm Calm - N/A   Overcast
2:54 AM 12.9 °F - 7.0 °F 77% 30.38 in 9.0 mi Calm Calm - N/A   Overcast
3:54 AM 12.9 °F - 8.1 °F 81% 30.38 in 9.0 mi Calm Calm - N/A   Overcast
4:10 AM 12.2 °F - 8.6 °F 85% 30.31 in 9.0 mi Calm Calm - N/A   Overcast
4:31 AM 12.2 °F - 8.6 °F 85% 30.30 in 8.0 mi Calm Calm - N/A   Overcast
4:54 AM 12.9 °F - 8.1 °F 81% 30.37 in 7.0 mi Calm Calm - N/A   Overcast
5:54 AM 12.9 °F - 9.0 °F 84% 30.38 in 6.0 mi Calm Calm - N/A   Overcast
6:54 AM 12.9 °F - 9.0 °F 84% 30.38 in 5.0 mi Calm Calm - N/A   Overcast
7:36 AM 12.2 °F - 10.4 °F 92% 30.31 in 3.0 mi Calm Calm - N/A   Overcast
7:54 AM 14.0 °F - 10.9 °F 88% 30.37 in 4.0 mi Calm Calm - N/A   Overcast
8:12 AM 14.0 °F - 10.4 °F 86% 30.30 in 2.0 mi Calm Calm - N/A   Overcast
8:35 AM 14.0 °F - 10.4 °F 86% 30.30 in 1.5 mi Calm Calm - N/A   Overcast
8:54 AM 14.0 °F - 10.4 °F 86% 30.26 in 1.5 mi Calm Calm - N/A   Overcast
9:15 AM 14.0 °F - 10.4 °F 86% 30.29 in 2.0 mi Calm Calm - N/A   Overcast
9:39 AM 15.8 °F - 12.2 °F 86% 30.34 in 2.5 mi Calm Calm - N/A   Overcast
9:54 AM 15.1 °F - 12.0 °F 88% 30.39 in 1.8 mi Calm Calm - 0.00 in Snow Light Snow
10:06 AM 15.8 °F - 12.2 °F 86% 30.31 in 2.0 mi Calm Calm - 0.00 in Snow Light Snow
10:34 AM 15.8 °F - 12.2 °F 86% 30.29 in 3.0 mi North - - 0.00 in Snow Light Snow
10:54 AM 16.0 °F 3.6 °F 12.0 °F 84% 30.39 in 4.0 mi NE 10.4 mph - 0.00 in   Overcast
11:05 AM 15.8 °F 5.1 °F 12.2 °F 86% 30.31 in 1.8 mi NE 8.1 mph - 0.00 in Snow Light Snow
11:17 AM 15.8 °F 3.4 °F 12.2 °F 86% 30.31 in 0.5 mi NNE 10.4 mph - 0.01 in Fog , Snow Snow
11:25 AM 15.8 °F 4.2 °F 12.2 °F 86% 30.31 in 0.2 mi NNE 9.2 mph - 0.02 in Fog , Snow Heavy Snow
11:34 AM 15.8 °F 2.7 °F 12.2 °F 86% 30.29 in 0.2 mi NNE 11.5 mph - 0.03 in Fog , Snow Snow
11:44 AM 15.8 °F 1.4 °F 12.2 °F 86% 30.28 in 0.5 mi NNE 13.8 mph - 0.03 in Fog , Snow Snow
11:54 AM 16.0 °F 1.7 °F 12.0 °F 84% 30.33 in 0.8 mi NNE 13.8 mph - 0.03 in Snow Light Snow
12:14 PM 17.6 °F 3.7 °F 12.2 °F 79% 30.26 in 1.0 mi North 13.8 mph - 0.01 in Snow Light Snow
12:22 PM 15.8 °F 0.9 °F 12.2 °F 86% 30.26 in 1.2 mi NNE 15.0 mph - 0.01 in Snow Light Snow
12:42 PM 15.8 °F 0.3 °F 12.2 °F 86% 30.23 in 0.8 mi NNE 16.1 mph - 0.01 in Snow Light Snow
12:52 PM 15.8 °F 0.9 °F 12.2 °F 86% 30.22 in 0.5 mi NNE 15.0 mph - 0.01 in Fog , Snow Snow
12:54 PM 16.0 °F 1.7 °F 12.0 °F 84% 30.29 in 0.5 mi NNE 13.8 mph - 0.01 in Fog , Snow Snow
1:31 PM 17.6 °F 4.3 °F 12.2 °F 79% 30.22 in 1.2 mi North 12.7 mph - 0.02 in Snow Light Snow
1:44 PM 15.8 °F 0.9 °F 12.2 °F 86% 30.21 in 2.0 mi North 15.0 mph - 0.02 in Snow Light Snow
1:50 PM 17.6 °F 3.2 °F 12.2 °F 79% 30.21 in 1.8 mi North 15.0 mph - 0.02 in Snow Light Snow
1:54 PM 17.1 °F 3.0 °F 12.9 °F 84% 30.27 in 1.2 mi North 13.8 mph - 0.02 in Snow Light Snow
2:01 PM 17.6 °F 3.7 °F 12.2 °F 79% 30.20 in 0.8 mi North 13.8 mph - 0.00 in Snow Light Snow
2:27 PM 17.6 °F 3.7 °F 12.2 °F 79% 30.20 in 0.8 mi North 13.8 mph - 0.00 in Snow Light Snow
2:41 PM 17.6 °F 2.7 °F 12.2 °F 79% 30.20 in 1.0 mi North 16.1 mph - 0.00 in Snow Light Snow
2:54 PM 17.1 °F 0.6 °F 12.0 °F 81% 30.27 in 1.5 mi North 19.6 mph - 0.00 in Snow Light Snow
3:30 PM 15.8 °F 0.9 °F 10.4 °F 79% 30.22 in 2.5 mi North 15.0 mph - 0.00 in   Overcast
3:54 PM 16.0 °F 1.1 °F 10.9 °F 81% 30.30 in 3.0 mi North 15.0 mph - 0.00 in   Overcast
4:01 PM 15.8 °F 0.3 °F 12.2 °F 86% 30.23 in 2.5 mi North 16.1 mph - 0.00 in   Overcast
4:12 PM 15.8 °F -0.6 °F 12.2 °F 86% 30.22 in 1.2 mi North 18.4 mph - 0.00 in Snow Light Snow
4:27 PM 15.8 °F 0.9 °F 12.2 °F 86% 30.23 in 1.0 mi North 15.0 mph - 0.00 in Snow Light Snow
4:54 PM 16.0 °F 0.1 °F 12.0 °F 84% 30.28 in 1.5 mi North 17.3 mph - 0.00 in Snow Light Snow
5:11 PM 15.8 °F -0.6 °F 10.4 °F 79% 30.21 in 2.5 mi North 18.4 mph - 0.00 in   Overcast
5:18 PM 15.8 °F -0.6 °F 10.4 °F 79% 30.20 in 5.0 mi North 18.4 mph - 0.00 in   Overcast
5:54 PM 16.0 °F 1.1 °F 10.9 °F 81% 30.28 in 4.0 mi North 15.0 mph - 0.00 in Snow Light Snow
6:02 PM 15.8 °F -1.5 °F 10.4 °F 79% 30.21 in 2.5 mi North 20.7 mph 25.3 mph 0.00 in Snow Light Snow
6:23 PM 15.8 °F -1.1 °F 10.4 °F 79% 30.23 in 1.8 mi North 19.6 mph - 0.00 in Snow Light Snow
6:40 PM 15.8 °F -1.1 °F 10.4 °F 79% 30.22 in 2.0 mi North 19.6 mph - 0.00 in Snow Light Snow
6:54 PM 16.0 °F 0.6 °F 10.9 °F 81% 30.28 in 3.0 mi North 16.1 mph - 0.00 in Snow Light Snow
7:54 PM 16.0 °F 0.6 °F 10.9 °F 81% 30.29 in 3.0 mi North 16.1 mph - 0.00 in Snow Light Snow
8:00 PM 15.8 °F 0.3 °F 10.4 °F 79% 30.21 in 2.5 mi North 16.1 mph - 0.00 in Snow Light Snow
8:19 PM 15.8 °F -0.2 °F 10.4 °F 79% 30.21 in 3.0 mi North 17.3 mph - 0.00 in Snow Light Snow
8:32 PM 15.8 °F 0.3 °F 10.4 °F 79% 30.22 in 3.0 mi North 16.1 mph - 0.00 in Snow Light Snow
8:42 PM 15.8 °F -0.6 °F 10.4 °F 79% 30.22 in 2.0 mi North 18.4 mph 23.0 mph 0.00 in Snow Light Snow
8:52 PM 15.8 °F 1.4 °F 10.4 °F 79% 30.22 in 2.5 mi North 13.8 mph - 0.00 in Snow Light Snow
8:54 PM 15.1 °F -0.1 °F 10.9 °F 84% 30.29 in 2.0 mi North 15.0 mph - 0.00 in Snow Light Snow
9:03 PM 15.8 °F 1.4 °F 10.4 °F 79% 30.22 in 1.2 mi North 13.8 mph - 0.00 in Snow Light Snow
9:24 PM 15.8 °F 0.3 °F 10.4 °F 79% 30.23 in 2.5 mi North 16.1 mph - 0.00 in Snow Light Snow
9:32 PM 15.8 °F 0.3 °F 10.4 °F 79% 30.23 in 3.0 mi North 16.1 mph - 0.00 in Snow Light Snow
9:48 PM 15.8 °F 0.3 °F 10.4 °F 79% 30.23 in 2.5 mi NNW 16.1 mph - 0.00 in Snow Light Snow
9:54 PM 15.1 °F -1.6 °F 10.9 °F 84% 30.29 in 2.5 mi North 18.4 mph - 0.00 in Snow Light Snow
10:02 PM 15.8 °F -0.2 °F 10.4 °F 79% 30.21 in 3.0 mi North 17.3 mph - 0.00 in Snow Light Snow
10:54 PM 15.1 °F -1.6 °F 10.0 °F 80% 30.29 in 5.0 mi North 18.4 mph - 0.00 in Snow Light Snow
11:54 PM 15.1 °F -1.1 °F 9.0 °F 77% 30.31 in 5.0 mi NNW 17.3 mph - 0.00 in Snow Light Snow